Nellis AFB, NV

10:04 AM PST on December 05, 2019 (GMT -0800)
Nellis Air Force Base

Weather History for KLSV - November, 2019

Change the Weather History Date:

Sunday, November 17, 2019

  Actual Average Record
Temperature  
Mean Temperature 65 °F -  
Max Temperature 76 °F 64 °F 82 °F (2008)
Min Temperature 53 °F 41 °F 32 °F (2000)
Growing Degree Days 15 (Base 50)    
Moisture  
Dew Point 24 °F    
Average Humidity 22    
Maximum Humidity 28    
Minimum Humidity 14    
Precipitation  
Precipitation 0.00 in - - ()
Sea Level Pressure  
Sea Level Pressure 30.09 in    
Wind  
Wind Speed 6 mph (NNE)    
Max Wind Speed 16 mph    
Max Gust Speed 21 mph    
Visibility 10 miles    
Events      
Averages and records for this station are not official NWS values.
T = Trace of Precipitation, MM = Missing Value Source: NWS Daily Summary

Daily Weather History Graph

Daily Weather History Graph

Search for Another Location

Airport or City:

Astronomy

Nov. 17, 2019 Rise Set
Actual Time 6:18 AM PST 4:30 PM PST
Civil Twilight 5:51 AM PST 4:58 PM PST
Nautical Twilight 5:20 AM PST 5:29 PM PST
Astronomical Twilight 4:49 AM PST 5:59 PM PST
Moon 9:14 PM PST (11/17) 11:05 AM PST (11/17)
Length of Visible Light 11h 06m
Length of Day
10h 11m
Waning Gibbous, 72% of the Moon is Illuminated
Nov 17
Waning Gibbous
Nov 19
Last Quarter
Nov 26
New
Dec 3
First Quarter
Dec 11
Full

Hourly Weather History & Observations

Time (PST) Temp. Dew Point Humidity Pressure Visibility Wind Dir Wind Speed Gust Speed Precip Events Conditions
12:58 AM 63.3 °F 22.6 °F 21% 30.10 in 10.0 mi Calm Calm - N/A   Clear
1:58 AM 62.1 °F 22.8 °F 22% 30.11 in 10.0 mi NNE 10.4 mph - N/A   Clear
2:58 AM 56.7 °F 23.0 °F 27% 30.12 in 10.0 mi NE 8.1 mph - N/A   Clear
3:58 AM 62.1 °F 22.8 °F 22% 30.14 in 10.0 mi NW 11.5 mph 20.7 mph N/A   Clear
4:58 AM 61.3 °F 25.2 °F 25% 30.15 in 10.0 mi NNW 16.1 mph 19.6 mph N/A   Clear
5:58 AM 60.8 °F 25.7 °F 26% 30.16 in 10.0 mi North 4.6 mph - N/A   Clear
6:58 AM 57.2 °F 23.0 °F 27% 30.17 in 10.0 mi East 8.1 mph - N/A   Clear
7:56 AM 61.7 °F 25.5 °F 25% 30.19 in 10.0 mi NE 10.4 mph - N/A   Clear
8:56 AM 65.1 °F 26.4 °F 23% 30.19 in 10.0 mi ENE 8.1 mph - N/A   Clear
9:56 AM 68.5 °F 27.0 °F 21% 30.17 in 10.0 mi NNW 9.2 mph - N/A   Clear
10:56 AM 72.1 °F 26.2 °F 18% 30.13 in 10.0 mi NW 6.9 mph - N/A   Clear
11:58 AM 74.5 °F 26.8 °F 17% 30.07 in 10.0 mi WSW 4.6 mph - N/A   Clear
12:58 PM 74.5 °F 25.3 °F 16% 30.03 in 10.0 mi Calm Calm - N/A   Clear
1:58 PM 75.7 °F 24.8 °F 15% 30.02 in 10.0 mi SSE 5.8 mph - N/A   Clear
2:58 PM 76.3 °F 23.5 °F 14% 30.03 in 8.0 mi SE 4.6 mph - N/A   Clear
3:58 PM 73.8 °F 23.2 °F 15% 30.01 in 10.0 mi South 5.8 mph - N/A   Clear
4:58 PM 69.6 °F 24.3 °F 18% 30.01 in 10.0 mi South 5.8 mph - N/A   Clear
5:58 PM 64.8 °F 22.8 °F 20% 30.04 in 10.0 mi Calm Calm - N/A   Clear
6:58 PM 61.3 °F 22.1 °F 22% 30.06 in 10.0 mi NW 4.6 mph - N/A   Clear
7:58 PM 59.7 °F 21.9 °F 23% 30.09 in 10.0 mi Calm Calm - N/A   Clear
8:58 PM 56.8 °F 20.5 °F 24% 30.08 in 10.0 mi Calm Calm - N/A   Clear
9:58 PM 54.7 °F 19.6 °F 25% 30.07 in 10.0 mi NE 3.5 mph - N/A   Clear
10:58 PM 57.4 °F 21.9 °F 25% 30.05 in 10.0 mi Calm Calm - N/A   Clear
11:58 PM 53.2 °F 21.0 °F 28% 30.05 in 10.0 mi NNW 5.8 mph - N/A   Clear